User: anonymous   Login
Location: Domont
(49.0278°N, 2.3264°E)
Time: 07:34:20
(UTC+00:00)
Language:

Meteor 1-21 Rocket - Orbit

View from above orbital plane
View from above orbital plane
View from above satellite
View from above satellite

Ground track
Ground track

The orbit data is extracted from the following two-line orbital elements,

1 07715U 75023B   22023.74266093 -.00000107  00000-0 -71129-4 0  9997
2 07715  81.2198  38.0555 0053065  82.4795 278.2398 14.06812197401778
Epoch (UTC): 23 January 2022 17:49:25
Eccentricity: 0.0053065
inclination: 81.2198°
perigee height: 832 km
apogee height: 909 km
right ascension of ascending node: 38.0555°
argument of perigee: 82.4795°
revolutions per day: 14.06812197
mean anomaly at epoch: 278.2398°
orbit number at epoch: 40177

The dashed part of the orbit path shows where the satellite is in the earth's shadow,  

DLR